Location: Maynard F. Jordan Observatory
(44.9000°N, 68.6700°W)
Time: 08:50:35
(UTC-04:00)

Cosmos 2297 Rocket - Visible Passes

Search period start: 02 September 2015 00:00
Search period end: 12 September 2015 00:00
Orbit: 838 x 845 km, 71.0° (Epoch: 01 September)

Date Brightness Start Highest point End Pass type
(mag) Time Alt. Az. Time Alt. Az. Time Alt. Az.
02 Sep 3.3 21:02:52 10° N 21:07:40 28° NE 21:09:11 25° ENE visible
02 Sep 3.0 22:46:33 10° NW 22:51:00 46° WNW 22:51:00 46° WNW visible
03 Sep 3.4 20:47:50 10° N 20:52:34 27° NE 20:54:29 23° E visible
03 Sep 2.8 22:31:28 10° NNW 22:36:17 51° W 22:36:17 51° W visible
04 Sep 3.5 20:32:48 10° N 20:37:28 26° NE 20:39:47 20° E visible
04 Sep 2.6 22:16:23 10° NNW 22:21:37 57° W 22:21:37 57° W visible
05 Sep 3.5 20:17:47 10° N 20:22:21 25° NE 20:25:09 18° E visible
05 Sep 2.4 22:01:18 10° NNW 22:06:54 61° WSW 22:06:59 61° WSW visible
06 Sep 3.5 20:02:46 10° N 20:07:15 24° NE 20:10:34 15° E visible
06 Sep 2.3 21:46:13 10° NNW 21:51:50 64° WSW 21:52:23 61° SW visible
07 Sep 3.6 19:47:45 10° N 19:52:08 23° NE 19:56:01 12° E visible
07 Sep 2.3 21:31:09 10° NNW 21:36:47 68° WSW 21:37:50 55° SSW visible
08 Sep 3.6 19:32:44 10° N 19:37:01 22° NE 19:41:25 10° E visible
08 Sep 2.3 21:16:04 10° NNW 21:21:43 71° WSW 21:23:21 47° S visible
09 Sep 2.3 21:01:00 10° NNW 21:06:39 75° WSW 21:08:54 38° S visible
09 Sep 4.8 22:48:50 10° W 22:49:51 10° W 22:50:29 10° WSW visible
10 Sep 2.2 20:45:55 10° NNW 20:51:36 79° WSW 20:54:32 30° SSE visible
10 Sep 4.7 22:33:08 10° W 22:34:50 11° W 22:36:09 10° WSW visible
11 Sep 2.2 20:30:51 10° NNW 20:36:32 82° WSW 20:40:15 22° SSE visible
11 Sep 4.7 22:17:40 10° WNW 22:19:48 12° W 22:21:34 10° WSW visible
